Flag for Canada Weather past 2 weeks in Sherbrooke, Quebec, Canada

Now
68 °F

Scattered clouds.


Feels Like: 68 °F
Forecast: N/A
Wind: 3 mph from Northwest

Location: Sherbrooke

Current Time: Aug 27, 2014 at 7:51:34 PM

Latest Report: Aug 27, 2014 at 7:00 PM


Visibility: 9 mi

Pressure: 29.91 "Hg

Humidity: 73%

Dew point: 59 °F

Location of SherbrookeLocation

Historic Weather in Sherbrooke — Graph

°F

Sherbrooke temperature yesterday

Maximum temperature yesterday: 82 °F (at 2:00 PM)
Minimum temperature yesterday: 54 °F (at 5:00 AM)
Average temperature yesterday: 67 °F

Past Weeks' High & Low Weather Summary

 TemperatureHumidityPressure
High82 °F (Aug 25, 2:00 PM)100% (Aug 13, 9:00 PM)30.20 "Hg (Aug 13, 9:00 PM)
Low46 °F (Aug 15, 2:00 AM)39% (Aug 20, 3:00 PM)29.67 "Hg (Aug 14, 3:52 AM)
Average62 °F82%29.98 "Hg
* Reported Aug 12 6:00 PM — Aug 27 6:00 PM, Sherbrooke, Weather by CustomWeather, © 2014

Note: Actual official high and low records may vary slightly from our data, if they occured in-between our weather recording intervals... More about our weather records

Advertising

Sherbrooke weather history for previous 24 hours

 ConditionsComfort  
Time TempWeatherWind HumidityBarometerVisibility
6:00 PM
Aug 27
70 °FPassing clouds.7 mph69%29.91 "Hg9 mi
5:00 PM75 °FPartly sunny.9 mph61%29.89 "Hg9 mi
4:00 PM77 °FPartly sunny.12 mph57%29.88 "Hg9 mi
3:00 PM77 °FScattered clouds.12 mph57%29.88 "Hg9 mi
2:00 PM79 °FScattered clouds.N/A54%29.89 "Hg9 mi
1:00 PM75 °FMostly cloudy.N/A61%29.90 "Hg9 mi
12:00 PM75 °FBroken clouds.N/A65%29.91 "Hg9 mi
11:00 AM75 °FSunny.N/A69%29.91 "Hg9 mi
10:00 AM72 °FPartly sunny.N/A83%29.91 "Hg9 mi
9:04 AM70 °FOvercast.N/A88%29.92 "Hg9 mi
9:00 AM70 °FMild.N/A88%29.92 "Hg9 mi
8:00 AM66 °FOvercast.N/A94%29.92 "Hg9 mi
7:00 AM66 °FOvercast.N/A88%29.91 "Hg9 mi
6:00 AM64 °FOvercast.N/A94%29.90 "Hg9 mi
5:00 AM64 °FOvercast.N/A94%29.90 "Hg9 mi
4:00 AM64 °FLight rain. Overcast.N/A94%29.90 "Hg9 mi
3:03 AM64 °FMostly cloudy.N/A94%29.90 "Hg9 mi
2:50 AM64 °FLight rain. Fog.N/A88%29.91 "Hg6 mi
2:00 AM66 °FOvercast.2 mph83%29.91 "Hg9 mi
1:00 AM68 °FMostly cloudy.No wind78%29.93 "Hg9 mi
12:00 AM68 °FPassing clouds.5 mph73%29.94 "Hg9 mi
11:00 PM
Aug 26
68 °FClear.2 mph73%29.95 "Hg9 mi
10:00 PM68 °FOvercast.No wind73%29.96 "Hg9 mi
9:00 PM68 °FPassing clouds.3 mph78%29.97 "Hg9 mi
8:00 PM72 °FSunny.2 mph65%29.96 "Hg9 mi
7:00 PM75 °FPartly sunny.5 mph57%29.98 "Hg9 mi
Weather by CustomWeather, © 2014

See weather overviewHow to use our weather pages